Location: Asheville, NC
(35.6000°N, 82.5500°W)
Time: 04:45:16
(UTC-05:00)

Vanguard 1 - Pass Details

Date: 13 December 2017
Orbit: 649 x 3834 km, 34.2° (Epoch: 22 January)

Event Time Altitude Azimuth Distance (km) Brightness Sun altitude
Rises 05:29:41 0° 187° (S) 7,536 14.6 -24.0°
Reaches altitude 10° 05:37:20 10° 172° (S) 6,811 14.6 -22.4°
Maximum altitude 05:51:15 20° 135° (SE) 6,071 14.8 -19.7°
Drops below altitude 10° 06:04:08 10° 98° (E) 6,404 15.5 -17.2°
Sets 06:10:40 0° 83° (E) 6,986 15.7 -15.9°
